Location: Alberica
(44.9167°N, 11.0333°E)
Time: 17:56:08
(UTC+00:00)

Daily predictions for brighter satellites

Satellite Brightness Start Highest point End
(mag) Time Altitude Azimuth Time Altitude Azimuth Time Altitude Azimuth
Meteor 1-5 Rocket 4.4 17:34:39 10° SSE 17:39:47 47° E 17:45:07 10° NNE
IRS-1C Rocket 4.1 17:37:15 10° SSE 17:42:30 79° ENE 17:47:48 10° NNW
SL-4 R/B 1.7 17:39:58 10° WNW 17:43:32 65° NNE 17:46:56 10° ESE
Cosmos 1536 4.2 17:41:02 10° SE 17:43:45 18° E 17:46:28 10° NE
COSMO-SKYMED 1 3.0 17:40:00 10° N 17:44:20 69° WNW 17:48:38 10° SSW
Cosmos 1633 Rocket 4.4 17:41:05 10° SSW 17:45:19 45° WNW 17:49:36 10° N
FALCON 9 DEB 4.1 17:43:25 10° NW 17:46:17 30° NNE 17:49:08 10° E
SeaSat 1 3.6 17:43:05 10° NE 17:46:57 23° ESE 17:50:47 10° SSE
Cosmos 2242 Rocket 3.6 17:43:47 10° N 17:48:14 59° ENE 17:52:36 10° SSE
MOS 1 Rocket 4.4 17:44:30 10° N 17:49:36 57° WNW 17:54:51 10° SSW
Gbstr 26 Del rocket 4.1 17:46:31 10° WNW 17:50:40 38° N 17:55:40 10° ENE
Cosmos 2333 Rocket 2.4 17:47:21 10° S 17:52:51 53° ESE 17:58:25 10° NE
Abrixas rocket 1.7 17:52:12 10° WNW 17:54:39 56° NNE 17:56:40 14° E
Helios 1A Rocket 3.1 17:55:17 10° SE 17:59:10 47° ENE 18:03:03 10° N
Cosmos 2322 Rocket 3.7 17:54:00 10° WSW 17:59:11 38° NW 18:04:26 10° NNE
Meteor 2-4 Rocket 3.9 17:53:20 10° N 17:59:16 88° E 18:05:12 10° S
SAR-Lupe-1 4.2 17:56:16 10° NNE 17:59:46 48° E 18:03:15 10° S
Lacrosse 4 Rocket 1.5 17:55:52 10° SSW 18:00:12 64° ESE 18:04:39 10° NE
GP-B 3.2 17:56:45 10° SSE 18:01:05 56° E 18:05:26 10° N
DELTA 2 R/B (1) 4.3 17:56:13 10° SW 18:01:21 38° SSE 18:05:50 13° E
ARGOS 3.1 17:57:54 10° SSE 18:03:17 71° ENE 18:08:42 10° N
Cosmos 192 4.3 18:01:46 10° S 18:06:38 71° ESE 18:11:33 10° NNE
Cosmos 1869 Rocket 3.7 18:03:26 10° SSE 18:07:38 49° E 18:11:54 10° NNE
CZ-4 R/B 1.9 18:04:55 10° S 18:08:46 62° W 18:12:41 10° NNW
Cosmos 2219 Rocket 2.2 18:03:49 10° S 18:09:20 63° ESE 18:14:53 10° NNE
CZ-4B R/B 3.5 18:08:05 10° N 18:10:48 29° WNW 18:13:32 10° SW
FALCON 9 DEB 3.4 18:12:02 10° NW 18:15:05 45° NNE 18:16:46 22° E
ERS-2 2.0 18:11:47 10° NNE 18:15:28 82° ESE 18:19:06 10° SSW
Cosmos 1238 Rocket 3.5 18:12:17 10° SSE 18:15:52 29° E 18:18:59 10° NNE
CZ-2C R/B 2.6 18:10:32 10° NNE 18:15:55 61° E 18:21:09 10° S
Cosmos 1689 Rocket 2.0 18:14:08 10° N 18:17:01 80° WNW 18:19:54 10° SSW
SL-08 RB Rocket 3.6 18:13:44 10° SSE 18:18:14 68° ENE 18:22:48 10° N
Cosmos 1378 3.6 18:15:59 10° N 18:19:29 38° ENE 18:22:46 11° SE
USA 305 4.0 18:16:18 10° NW 18:20:11 32° NNE 18:22:40 18° ENE
NOSS 3-2 (A) 3.6 18:16:41 10° S 18:21:55 45° ESE 18:27:51 10° NE
CREW DRAGON DEMO-1 DEB 2.5 18:19:45 10° SW 18:22:34 80° SE 18:23:59 26° ENE
HJ-1C 3.6 18:19:35 10° S 18:22:52 71° WSW 18:26:10 10° NNW
COSMOS 2428 2.6 18:18:26 10° SSW 18:24:03 69° ESE 18:29:44 10° NNE
FALCON 9 DEB 3.4 18:21:27 10° NW 18:24:33 45° NNE 18:25:51 28° E
Cosmos 1733 Rocket 4.0 18:21:32 10° SE 18:25:03 25° E 18:28:36 10° NE
SL-8 Rocket 4.0 18:26:44 10° S 18:32:57 89° W 18:39:11 10° N
CENTAUR R/B 2.9 18:28:24 10° S 18:33:38 37° ESE 18:39:44 10° NE
USA 307 3.9 18:30:03 10° NW 18:34:00 35° NNE 18:35:52 24° ENE
USA 306 3.8 18:31:18 10° NW 18:35:18 36° NNE 18:37:06 25° ENE
NOSS 0 Rocket 4.1 18:29:39 10° S 18:35:27 45° ESE 18:41:16 10° NE
ATLAS CENTAUR R/B 3.9 18:33:39 10° WNW 18:36:00 16° NW 18:38:23 10° N
Cosmos 1898 Rocket 4.5 18:33:16 10° N 18:37:47 28° ENE 18:39:11 25° E
Cosmos 1066 Rocket 4.2 18:32:12 10° N 18:37:59 72° ENE 18:43:50 10° SSE
Cosmos 1743 3.2 18:36:03 10° SSE 18:39:36 36° E 18:43:12 10° NNE
Cosmos 1666 4.0 18:37:56 10° SSW 18:41:28 42° WNW 18:45:04 10° N
CSL-04 Rocket 4.0 18:38:47 10° S 18:44:17 69° WSW 18:49:47 10° NNW
USA 308 3.7 18:40:51 10° NW 18:44:52 38° NNE 18:46:15 30° ENE
Cosmos 2322 4.4 18:39:28 10° SW 18:45:06 57° WNW 18:50:45 10° NNE
Okean-O 4.5 18:43:40 10° SSW 18:47:38 32° W 18:51:39 10° NNW
Meteor 1-23 Rocket 4.1 18:42:47 10° N 18:48:24 68° ENE 18:54:03 10° SSE
GRACE-FO 1 4.5 18:46:49 18° SSE 18:49:25 63° E 18:53:04 10° N
GRACE-FO 2 4.5 18:47:14 18° SSE 18:49:50 64° E 18:53:29 10° N
BREEZE-M DEB (TANK) 2.5 18:47:34 10° WSW 18:49:54 78° SSE 18:50:06 71° E
Cosmos 2366 rocket 4.1 18:44:53 10° S 18:51:13 81° W 18:57:36 10° N
H-2A R/B 4.0 18:46:52 10° SSW 18:51:43 32° W 18:56:34 10° NNW
ASTEX 1 3.3 18:47:28 10° NNE 18:52:20 64° E 18:57:11 10° S
SJ-6B 2.8 18:52:44 32° SSE 18:54:28 66° ENE 18:58:27 10° N
Cosmos 1674 Rocket 4.2 18:51:42 10° N 18:55:16 34° ENE 18:55:16 34° ENE
Ariane Rocket 3.0 18:55:34 29° SE 18:58:00 58° ENE 19:03:00 10° N
Cosmos 990 Rocket 4.2 18:53:26 10° N 18:58:27 47° ENE 18:59:41 40° ESE
USA 186 2.4 18:59:36 39° NNW 18:59:36 39° NNW 19:01:27 10° NNW
Cosmos 2221 Rocket 3.4 18:55:19 10° N 18:59:47 77° E 19:02:11 27° SSE
Cosmos 1763 Rocket 3.8 18:56:27 10° S 19:01:25 42° ESE 19:06:24 10° NE
OBJECT-B 1.3 19:02:09 48° NNE 19:02:09 48° NNE 19:04:39 10° N
NOSS 3-2 (C) 3.4 18:58:14 10° SSW 19:03:36 53° ESE 19:08:11 17° NE
SL-08 R/B 4.5 18:57:48 10° S 19:04:14 79° E 19:10:43 10° N
Meteor 1-11 Rocket 4.3 18:59:42 10° SSW 19:05:17 60° WNW 19:10:49 10° N
Cosmos 1378 Rocket 4.3 19:05:58 10° N 19:09:21 38° NE 19:09:21 38° NE
Cosmos 468 Rocket 4.0 19:07:53 10° S 19:13:04 56° ESE 19:18:14 10° NNE
FALCON 9 DEB 3.7 19:11:13 10° WNW 19:13:45 50° W 19:13:45 50° W
Cosmos 1821 Rocket 3.8 19:09:16 10° S 19:15:25 70° E 19:21:33 10° NNE
Cosmos 1943 Rocket 3.6 19:11:21 10° N 19:15:25 21° NE 19:15:25 21° NE
Cosmos 2237 Rocket 2.1 19:10:48 10° SSW 19:16:27 69° ESE 19:22:09 10° NNE
Cosmos 1544 3.3 19:13:46 10° SSW 19:17:23 68° W 19:21:04 10° N
SJ 16-02 1.7 19:13:08 10° NNW 19:17:30 61° WSW 19:19:19 33° S
Cosmos 1727 Rocket 4.2 19:11:35 10° NNW 19:17:46 73° W 19:23:56 10° S
MOS 1 4.2 19:15:42 28° SSE 19:18:50 86° ENE 19:24:33 10° NNW
Cosmos 2278 Rocket 2.2 19:14:10 10° NNW 19:19:52 82° WSW 19:22:11 37° SSE
Cosmos 1536 4.4 19:16:12 10° SW 19:19:52 35° WNW 19:23:34 10° N
USA 81 3.9 19:15:58 10° S 19:21:13 80° E 19:26:30 10° N
FALCON 9 DEB 4.4 19:19:09 10° WNW 19:21:22 36° W 19:21:22 36° W
Cosmos 1000 Rocket 4.4 19:16:11 10° N 19:22:30 74° E 19:25:17 36° SSE
SL-4 R/B 3.6 19:20:06 10° W 19:22:45 20° SW 19:22:57 20° SW
SPOT 3 Rocket 3.8 19:24:24 50° ENE 19:24:24 50° ENE 19:29:11 10° N
SeaSat 1 3.1 19:19:54 10° NNE 19:24:43 54° WNW 19:29:31 10° SW
Cosmos 2239 Rocket 4.4 19:18:53 10° S 19:25:07 70° E 19:31:21 10° NNE
Cosmos 1934 Rocket 4.2 19:30:07 47° ENE 19:30:07 47° ENE 19:35:13 10° NNE
Resurs 01 Rocket 2.6 19:31:41 35° NNE 19:31:41 35° NNE 19:34:28 10° N
SME Rocket 4.1 19:25:37 10° NNE 19:32:49 69° WNW 19:37:34 10° SSW
Meteor 2-20 Rocket 4.4 19:27:46 10° N 19:33:54 81° W 19:37:10 30° S
USA 234 3.1 19:33:09 43° ENE 19:35:25 71° SE 19:41:57 10° SW
Cosmos 2333 Rocket 4.2 19:32:35 10° WSW 19:37:26 28° NW 19:42:20 10° N
Gbstr 26 Del rocket 3.4 19:33:10 10° WNW 19:38:05 81° NNE 19:38:19 79° ENE
Lacrosse 4 Rocket 4.1 19:36:06 10° W 19:39:20 19° NW 19:42:35 10° N
Cosmos 1937 Rocket 3.7 19:35:26 10° NNW 19:39:50 57° NNE 19:39:50 57° NNE
Cosmos 2123 Rocket 3.9 19:34:48 10° N 19:41:01 64° E 19:41:01 64° E
USA 238 DEB 3.8 19:37:05 10° SW 19:43:38 69° NW 19:50:31 10° NE
USA 238 3.8 19:37:12 10° SW 19:43:44 69° NW 19:50:38 10° NE
Resurs 1-3 4.0 19:45:27 60° WNW 19:45:27 60° WNW 19:49:22 10° NNW
DELTA 2 R/B (1) 4.1 19:41:57 10° WSW 19:46:36 47° SSW 19:46:36 47° SSW
Cosmos 2219 Rocket 4.4 19:49:17 10° WSW 19:53:44 24° NW 19:58:15 10° N
USA 305 4.4 19:56:12 10° WNW 19:58:46 35° WNW 19:58:46 35° WNW
Cosmos 1980 4.4 19:55:50 10° SW 20:01:19 52° WNW 20:06:52 10° NNE
Cosmos 2369 Rocket 3.8 20:15:19 10° N 20:18:00 24° N 20:18:00 24° N
CENTAUR R/B 3.3 20:18:15 10° WSW 20:24:04 49° NW 20:31:02 10° NNE
Cosmos 1943 Rocket 3.9 20:54:20 10° NNW 20:56:57 28° NNW 20:56:57 28° NNW
Cosmos 2237 Rocket 4.3 20:56:38 10° W 21:01:04 23° NW 21:05:31 10° N
